星链-4197 (STARLINK-4197 )

导读 | 豆包AI

STARLINK-4197是美国SpaceX公司星链(Starlink)星座的V1.5批次卫星,于2022年6月17日发射升空,运行在约550公里高度的近地轨道。作为全球卫星互联网项目的组成部分,它搭载相控阵天线与氪离子推进器,具备自主轨道维持和避碰能力,可为偏远地区提供高速低延迟宽带服务,退役后会主动坠入大气层完全烧毁,减少空间碎片隐患。

基本信息
目录编号:
52849
目录名称:
STARLINK-4197
国际标识:
2022-062V
轨道中心:
EARTH
卫星名称:
星链-4197
卫星全名:
星链-4197 (STARLINK-4197 )
卫星状态:
在轨 (已飞行1367 天)
发射日期:
2022-06-17 UTC
国别 :
美国 (US)
星等 :
--
轨道信息
数据来源 国际轨道数据
星历时间: 2026-03-14T09:53:21+0800
23小时前
查看轨道信息
半长轴: 6917.893km
偏心率: 0.0001554
轨道倾角: 53.218°
近地点辐角 71.284°
升交点赤经 4.417°
平近点角 288.833°
近地点: 538.68km
远地点: 540.832km
周期: 95.438分钟
每日圈数: 15.088359
详细信息
固有亮度:
5
最大亮度:
2.5
卫星平台:
Starlink v1.5
覆盖范围:
全球
运营商:
太空探索技术公司
运营商所在国:
美国
制造商(研发单位):
太空探索技术公司
制造商所在国:
美国
使用方式:
暂无
卫星简介
星链(Starlink)计划是由太空探索技术公司(SpaceX)提出的一个巨型低轨卫星互联网星座项目,计划在2019年至2024年间在太空搭建由约1.2万颗卫星组成的“星链”网络,其中1584颗将部署在地球上空550千米处的近地轨道,并从2020年开始工作。该卫星仍在工作。
2D轨道图
3D轨道图
轨道高度分析图
轨道倾角分析图
轨道综合分析图
查看轨道综合分析图